Pintail — WDF5177 — position and weather

sailwx.info

Track history (hours):
 
Tides and Currents Weather Stations Pressure Air Temp Water Temp Dewpoint Dewpoint Depression Visibility Wind Speed Wind Dir Waves Ship Positions

Pintail

Owner: Pintail Marine Services, Inc, Friday Harbor, WA. More information available from US FCC via Universal Licensing System and Coast Guard Vessel Documentation Center.

Last reported at 2014-Nov-27 11:29 UTC. Time now 2014-Nov-27 11:41 UTC.
Position N 48°32' W 122°60'.

Length 19 m.

Type: Towing. MMSI: 367460260.

Date/timePositionNaut miles runAvg speedWind from/ knotsBaromVisibWave heightAir tempDewpointWater temp
2014-Nov-27 11:29N 48°32' W 122°60'0 0.0
2014-Nov-27 10:32N 48°32' W 122°60'0 0.0
2014-Nov-27 09:32N 48°32' W 122°60'0 0.0
2014-Nov-27 08:32N 48°32' W 122°60'0 0.0
2014-Nov-27 07:32N 48°32' W 122°60'0 0.0
2014-Nov-27 06:32N 48°32' W 122°60'0 0.0
2014-Nov-27 05:32N 48°32' W 122°60'0 0.0
2014-Nov-27 04:32N 48°32' W 122°60'0 0.0
2014-Nov-27 03:32N 48°32' W 122°60'0 0.0
2014-Nov-27 02:32N 48°32' W 122°60'0 0.0
2014-Nov-27 01:32N 48°32' W 122°60'0 0.0
2014-Nov-27 00:32N 48°32' W 122°60'0 0.0
2014-Nov-26 23:32N 48°32' W 122°60'0 0.0
2014-Nov-26 22:33N 48°32' W 122°60'0 0.0
2014-Nov-26 21:33N 48°32' W 122°60'0 0.0
2014-Nov-26 20:33N 48°32' W 122°60'0 0.0
2014-Nov-26 19:32N 48°32' W 122°60'0 0.1
2014-Nov-26 18:33N 48°32' W 122°60'1 0.5
2014-Nov-26 17:32N 48°32' W 123°00'0 0.5
2014-Nov-26 16:33N 48°32' W 122°60'0 0.0
2014-Nov-26 15:32N 48°32' W 122°60'0 0.0
2014-Nov-26 14:32N 48°32' W 122°60'0 0.0
2014-Nov-26 13:32N 48°32' W 122°60'0 0.0
2014-Nov-26 12:32N 48°32' W 122°60'0 0.0
2014-Nov-26 11:32N 48°32' W 122°60'0 0.0
2014-Nov-26 10:32N 48°32' W 122°60'0 0.0
2014-Nov-26 09:32N 48°32' W 122°60'0 0.0
2014-Nov-26 08:32N 48°32' W 122°60'8 0.8
2014-Nov-25 23:07N 48°36' W 123°09'0 0.0
2014-Nov-25 22:32N 48°36' W 123°09'0 0.0
2014-Nov-25 21:22N 48°36' W 123°09'0 0.0
2014-Nov-25 20:11N 48°36' W 123°09'0 0.0
2014-Nov-25 18:05N 48°36' W 123°09'8 3.1
2014-Nov-25 15:32N 48°32' W 122°60'0 0.0
2014-Nov-25 14:32N 48°32' W 122°60'0 0.0
2014-Nov-25 13:32N 48°32' W 122°60'0 0.0
2014-Nov-25 12:29N 48°32' W 122°60'0 0.0
2014-Nov-25 11:26N 48°32' W 122°60'0 0.0
2014-Nov-25 10:32N 48°32' W 122°60'0 0.0
2014-Nov-25 09:33N 48°32' W 122°60'0 0.0
2014-Nov-25 08:33N 48°32' W 122°60'0 0.0
2014-Nov-25 07:32N 48°32' W 122°60'0 0.0
2014-Nov-25 06:33N 48°32' W 122°60'0 0.0
2014-Nov-25 05:33N 48°32' W 122°60'0 0.0
2014-Nov-25 04:33N 48°32' W 122°60'0 0.0
2014-Nov-25 03:33N 48°32' W 122°60'0 0.0
2014-Nov-25 02:30N 48°32' W 122°60'0 0.0
2014-Nov-25 01:30N 48°32' W 122°60'0 0.0
2014-Nov-25 00:33N 48°32' W 122°60'0 0.0
2014-Nov-24 23:33N 48°32' W 122°60'0 0.0
2014-Nov-24 22:30N 48°32' W 122°60'0 0.0
2014-Nov-24 21:33N 48°32' W 122°60'3 3.3
2014-Nov-24 20:33N 48°33' W 122°55'5 5.4
2014-Nov-24 19:33N 48°32' W 122°48'7 7.2
2014-Nov-24 18:32N 48°31' W 122°37'3 3.0
2014-Nov-24 17:24N 48°32' W 122°42'5 5.8
2014-Nov-24 16:32N 48°33' W 122°49'5 5.1
2014-Nov-24 15:33N 48°33' W 122°57'2 2.3
2014-Nov-24 14:32N 48°32' W 122°60'0 0.0
2014-Nov-24 13:29N 48°32' W 122°60'0 0.0
2014-Nov-24 12:32N 48°32' W 122°60'0 0.0
2014-Nov-24 11:32N 48°32' W 122°60'0 0.0
2014-Nov-24 10:32N 48°32' W 122°60'0 0.0
2014-Nov-24 09:32N 48°32' W 122°60'0 0.0
2014-Nov-24 08:32N 48°32' W 122°60'0 0.0
2014-Nov-24 07:29N 48°32' W 122°60'0 0.0
2014-Nov-24 06:30N 48°32' W 122°60'0 0.0
2014-Nov-24 05:29N 48°32' W 122°60'0 0.0
2014-Nov-24 04:29N 48°32' W 122°60'0 0.0
2014-Nov-24 03:32N 48°32' W 122°60'0 0.0
2014-Nov-24 02:33N 48°32' W 122°60'0 0.0
2014-Nov-24 01:30N 48°32' W 122°60'0 0.0
2014-Nov-24 00:27N 48°32' W 122°60'0 0.0
2014-Nov-23 23:33N 48°32' W 122°60'0 0.0
2014-Nov-23 22:33N 48°32' W 122°60'0 0.0
2014-Nov-23 21:30N 48°32' W 122°60'0 0.0
2014-Nov-23 20:33N 48°32' W 122°60'0 0.0
2014-Nov-23 19:33N 48°32' W 122°60'0 0.0
2014-Nov-23 18:33N 48°32' W 122°60'0 0.0
2014-Nov-23 17:30N 48°32' W 122°60'0 0.0
2014-Nov-23 16:33N 48°32' W 122°60'0 0.0
2014-Nov-23 15:30N 48°32' W 122°60'0 0.0
2014-Nov-23 14:33N 48°32' W 122°60'0 0.0
2014-Nov-23 13:33N 48°32' W 122°60'0 0.0
2014-Nov-23 12:33N 48°32' W 122°60'0 0.0
2014-Nov-23 11:33N 48°32' W 122°60'0 0.0
2014-Nov-23 10:33N 48°32' W 122°60'0 0.0
2014-Nov-23 09:30N 48°32' W 122°60'0 0.0
2014-Nov-23 08:33N 48°32' W 122°60'0 0.0
2014-Nov-23 07:33N 48°32' W 122°60'0 0.0
2014-Nov-23 06:33N 48°32' W 122°60'0 0.0
2014-Nov-23 05:33N 48°32' W 122°60'0 0.0
2014-Nov-23 04:33N 48°32' W 122°60'0 0.0
2014-Nov-23 03:33N 48°32' W 122°60'0 0.0
2014-Nov-23 02:33N 48°32' W 122°60'0 0.0
2014-Nov-23 01:30N 48°32' W 122°60'0 0.0
2014-Nov-23 00:33N 48°32' W 122°60'0 0.0
2014-Nov-22 23:33N 48°32' W 122°60'0 0.0
2014-Nov-22 22:30N 48°32' W 122°60'0 0.0
2014-Nov-22 21:30N 48°32' W 122°60'0 0.0
2014-Nov-22 20:33N 48°32' W 122°60'0 0.0
2014-Nov-22 19:33N 48°32' W 122°60'0 0.0
2014-Nov-22 18:33N 48°32' W 122°60'0 0.0
2014-Nov-22 17:30N 48°32' W 122°60'0 0.0
2014-Nov-22 16:30N 48°32' W 122°60'0 0.0
2014-Nov-22 15:30N 48°32' W 122°60'0 0.0
2014-Nov-22 14:33N 48°32' W 122°60'0 0.0
2014-Nov-22 13:27N 48°32' W 122°60'0 0.0
2014-Nov-22 12:33N 48°32' W 122°60'0 0.0
2014-Nov-22 11:24N 48°32' W 122°60'0 0.0
2014-Nov-22 10:33N 48°32' W 122°60'0 0.0
2014-Nov-22 09:33N 48°32' W 122°60'0 0.0
2014-Nov-22 08:29N 48°32' W 122°60'0 0.0
2014-Nov-22 07:32N 48°32' W 122°60'0 0.0
2014-Nov-22 06:32N 48°32' W 122°60'0 0.0
2014-Nov-22 05:32N 48°32' W 122°60'0 0.0
2014-Nov-22 04:32N 48°32' W 122°60'0 0.0
2014-Nov-22 03:32N 48°32' W 122°60'0 0.0
2014-Nov-22 02:31N 48°32' W 122°60'0 0.0
2014-Nov-22 01:28N 48°32' W 122°60'0 0.0
2014-Nov-22 00:31N 48°32' W 122°60'9 2.7
2014-Nov-21 21:19N 48°36' W 123°11'8 2.7
2014-Nov-21 18:30N 48°34' W 123°00'2 2.0
2014-Nov-21 17:33N 48°32' W 122°60'0 0.0
2014-Nov-21 16:30N 48°32' W 122°60'0 0.0
2014-Nov-21 15:33N 48°32' W 122°60'0 0.0
2014-Nov-21 14:33N 48°32' W 122°60'0 0.0
2014-Nov-21 13:33N 48°32' W 122°60'0 0.0
2014-Nov-21 12:33N 48°32' W 122°60'0 0.0
2014-Nov-21 11:33N 48°32' W 122°60'0 0.0
2014-Nov-21 10:33N 48°32' W 122°60'0 0.0
2014-Nov-21 09:33N 48°32' W 122°60'0 0.0
2014-Nov-21 08:30N 48°32' W 122°60'0 0.0
2014-Nov-21 07:30N 48°32' W 122°60'0 0.0
2014-Nov-21 06:33N 48°32' W 122°60'0 0.0
2014-Nov-21 05:30N 48°32' W 122°60'0 0.0
2014-Nov-21 04:33N 48°32' W 122°60'0 0.0
2014-Nov-21 03:33N 48°32' W 122°60'0 0.0
2014-Nov-21 02:33N 48°32' W 122°60'0 0.0
2014-Nov-21 01:33N 48°32' W 122°60'0 0.0
2014-Nov-21 00:33N 48°32' W 122°60'0 0.1
2014-Nov-20 23:33N 48°32' W 123°00'1 0.5
2014-Nov-20 22:33N 48°32' W 123°00'1 0.5
2014-Nov-20 21:33N 48°32' W 123°00'6 5.6
2014-Nov-20 20:32N 48°34' W 122°52'9 6.3
2014-Nov-20 19:04N 48°31' W 122°39'2 3.2
2014-Nov-20 18:29N 48°31' W 122°36'5 3.9
2014-Nov-20 17:12N 48°32' W 122°44'4 6.1
2014-Nov-20 16:32N 48°33' W 122°50'5 5.3
2014-Nov-20 15:33N 48°33' W 122°57'2 1.9
2014-Nov-20 14:33N 48°32' W 122°60'0 0.0
2014-Nov-20 13:30N 48°32' W 122°60'0 0.0
2014-Nov-20 12:33N 48°32' W 122°60'0 0.0
2014-Nov-20 11:33N 48°32' W 122°60'0 0.0
2014-Nov-20 10:33N 48°32' W 122°60'0 0.0
2014-Nov-20 09:33N 48°32' W 122°60'0 0.0
2014-Nov-20 08:33N 48°32' W 122°60'0 0.0
2014-Nov-20 07:33N 48°32' W 122°60'0 0.0
2014-Nov-20 06:33N 48°32' W 122°60'0 0.0
2014-Nov-20 05:33N 48°32' W 122°60'0 0.0
2014-Nov-20 04:33N 48°32' W 122°60'0 0.0
2014-Nov-20 03:33N 48°32' W 122°60'0 0.0
2014-Nov-20 02:33N 48°32' W 122°60'0 0.0
2014-Nov-20 01:33N 48°32' W 122°60'1 1.2
2014-Nov-20 00:33N 48°32' W 122°58'5 5.2
2014-Nov-19 23:33N 48°27' W 122°57'  
Track history (hours):
 
Tides and Currents Weather Stations Pressure Air Temp Water Temp Dewpoint Dewpoint Depression Visibility Wind Speed Wind Dir Waves Ship Positions

Pintail

Owner: Pintail Marine Services, Inc, Friday Harbor, WA. More information available from US FCC via Universal Licensing System and Coast Guard Vessel Documentation Center.

Last reported at 2014-Nov-27 11:29 UTC. Time now 2014-Nov-27 11:41 UTC.
Position N 48°32' W 122°60'.

Length 19 m.

Type: Towing. MMSI: 367460260.

Date/timePositionNaut miles runAvg speedWind from/ knotsBaromVisibWave heightAir tempDewpointWater temp
2014-Nov-27 11:29N 48°32' W 122°60'0 0.0
2014-Nov-27 10:32N 48°32' W 122°60'0 0.0
2014-Nov-27 09:32N 48°32' W 122°60'0 0.0
2014-Nov-27 08:32N 48°32' W 122°60'0 0.0
2014-Nov-27 07:32N 48°32' W 122°60'0 0.0
2014-Nov-27 06:32N 48°32' W 122°60'0 0.0
2014-Nov-27 05:32N 48°32' W 122°60'0 0.0
2014-Nov-27 04:32N 48°32' W 122°60'0 0.0
2014-Nov-27 03:32N 48°32' W 122°60'0 0.0
2014-Nov-27 02:32N 48°32' W 122°60'0 0.0
2014-Nov-27 01:32N 48°32' W 122°60'0 0.0
2014-Nov-27 00:32N 48°32' W 122°60'0 0.0
2014-Nov-26 23:32N 48°32' W 122°60'0 0.0
2014-Nov-26 22:33N 48°32' W 122°60'0 0.0
2014-Nov-26 21:33N 48°32' W 122°60'0 0.0
2014-Nov-26 20:33N 48°32' W 122°60'0 0.0
2014-Nov-26 19:32N 48°32' W 122°60'0 0.1
2014-Nov-26 18:33N 48°32' W 122°60'1 0.5
2014-Nov-26 17:32N 48°32' W 123°00'0 0.5
2014-Nov-26 16:33N 48°32' W 122°60'0 0.0
2014-Nov-26 15:32N 48°32' W 122°60'0 0.0
2014-Nov-26 14:32N 48°32' W 122°60'0 0.0
2014-Nov-26 13:32N 48°32' W 122°60'0 0.0
2014-Nov-26 12:32N 48°32' W 122°60'0 0.0
2014-Nov-26 11:32N 48°32' W 122°60'0 0.0
2014-Nov-26 10:32N 48°32' W 122°60'0 0.0
2014-Nov-26 09:32N 48°32' W 122°60'0 0.0
2014-Nov-26 08:32N 48°32' W 122°60'8 0.8
2014-Nov-25 23:07N 48°36' W 123°09'0 0.0
2014-Nov-25 22:32N 48°36' W 123°09'0 0.0
2014-Nov-25 21:22N 48°36' W 123°09'0 0.0
2014-Nov-25 20:11N 48°36' W 123°09'0 0.0
2014-Nov-25 18:05N 48°36' W 123°09'8 3.1
2014-Nov-25 15:32N 48°32' W 122°60'0 0.0
2014-Nov-25 14:32N 48°32' W 122°60'0 0.0
2014-Nov-25 13:32N 48°32' W 122°60'0 0.0
2014-Nov-25 12:29N 48°32' W 122°60'0 0.0
2014-Nov-25 11:26N 48°32' W 122°60'0 0.0
2014-Nov-25 10:32N 48°32' W 122°60'0 0.0
2014-Nov-25 09:33N 48°32' W 122°60'0 0.0
2014-Nov-25 08:33N 48°32' W 122°60'0 0.0
2014-Nov-25 07:32N 48°32' W 122°60'0 0.0
2014-Nov-25 06:33N 48°32' W 122°60'0 0.0
2014-Nov-25 05:33N 48°32' W 122°60'0 0.0
2014-Nov-25 04:33N 48°32' W 122°60'0 0.0
2014-Nov-25 03:33N 48°32' W 122°60'0 0.0
2014-Nov-25 02:30N 48°32' W 122°60'0 0.0
2014-Nov-25 01:30N 48°32' W 122°60'0 0.0
2014-Nov-25 00:33N 48°32' W 122°60'0 0.0
2014-Nov-24 23:33N 48°32' W 122°60'0 0.0
2014-Nov-24 22:30N 48°32' W 122°60'0 0.0
2014-Nov-24 21:33N 48°32' W 122°60'3 3.3
2014-Nov-24 20:33N 48°33' W 122°55'5 5.4
2014-Nov-24 19:33N 48°32' W 122°48'7 7.2
2014-Nov-24 18:32N 48°31' W 122°37'3 3.0
2014-Nov-24 17:24N 48°32' W 122°42'5 5.8
2014-Nov-24 16:32N 48°33' W 122°49'5 5.1
2014-Nov-24 15:33N 48°33' W 122°57'2 2.3
2014-Nov-24 14:32N 48°32' W 122°60'0 0.0
2014-Nov-24 13:29N 48°32' W 122°60'0 0.0
2014-Nov-24 12:32N 48°32' W 122°60'0 0.0
2014-Nov-24 11:32N 48°32' W 122°60'0 0.0
2014-Nov-24 10:32N 48°32' W 122°60'0 0.0
2014-Nov-24 09:32N 48°32' W 122°60'0 0.0
2014-Nov-24 08:32N 48°32' W 122°60'0 0.0
2014-Nov-24 07:29N 48°32' W 122°60'0 0.0
2014-Nov-24 06:30N 48°32' W 122°60'0 0.0
2014-Nov-24 05:29N 48°32' W 122°60'0 0.0
2014-Nov-24 04:29N 48°32' W 122°60'0 0.0
2014-Nov-24 03:32N 48°32' W 122°60'0 0.0
2014-Nov-24 02:33N 48°32' W 122°60'0 0.0
2014-Nov-24 01:30N 48°32' W 122°60'0 0.0
2014-Nov-24 00:27N 48°32' W 122°60'0 0.0
2014-Nov-23 23:33N 48°32' W 122°60'0 0.0
2014-Nov-23 22:33N 48°32' W 122°60'0 0.0
2014-Nov-23 21:30N 48°32' W 122°60'0 0.0
2014-Nov-23 20:33N 48°32' W 122°60'0 0.0
2014-Nov-23 19:33N 48°32' W 122°60'0 0.0
2014-Nov-23 18:33N 48°32' W 122°60'0 0.0
2014-Nov-23 17:30N 48°32' W 122°60'0 0.0
2014-Nov-23 16:33N 48°32' W 122°60'0 0.0
2014-Nov-23 15:30N 48°32' W 122°60'0 0.0
2014-Nov-23 14:33N 48°32' W 122°60'0 0.0
2014-Nov-23 13:33N 48°32' W 122°60'0 0.0
2014-Nov-23 12:33N 48°32' W 122°60'0 0.0
2014-Nov-23 11:33N 48°32' W 122°60'0 0.0
2014-Nov-23 10:33N 48°32' W 122°60'0 0.0
2014-Nov-23 09:30N 48°32' W 122°60'0 0.0
2014-Nov-23 08:33N 48°32' W 122°60'0 0.0
2014-Nov-23 07:33N 48°32' W 122°60'0 0.0
2014-Nov-23 06:33N 48°32' W 122°60'0 0.0
2014-Nov-23 05:33N 48°32' W 122°60'0 0.0
2014-Nov-23 04:33N 48°32' W 122°60'0 0.0
2014-Nov-23 03:33N 48°32' W 122°60'0 0.0
2014-Nov-23 02:33N 48°32' W 122°60'0 0.0
2014-Nov-23 01:30N 48°32' W 122°60'0 0.0
2014-Nov-23 00:33N 48°32' W 122°60'0 0.0
2014-Nov-22 23:33N 48°32' W 122°60'0 0.0
2014-Nov-22 22:30N 48°32' W 122°60'0 0.0
2014-Nov-22 21:30N 48°32' W 122°60'0 0.0
2014-Nov-22 20:33N 48°32' W 122°60'0 0.0
2014-Nov-22 19:33N 48°32' W 122°60'0 0.0
2014-Nov-22 18:33N 48°32' W 122°60'0 0.0
2014-Nov-22 17:30N 48°32' W 122°60'0 0.0
2014-Nov-22 16:30N 48°32' W 122°60'0 0.0
2014-Nov-22 15:30N 48°32' W 122°60'0 0.0
2014-Nov-22 14:33N 48°32' W 122°60'0 0.0
2014-Nov-22 13:27N 48°32' W 122°60'0 0.0
2014-Nov-22 12:33N 48°32' W 122°60'0 0.0
2014-Nov-22 11:24N 48°32' W 122°60'0 0.0
2014-Nov-22 10:33N 48°32' W 122°60'0 0.0
2014-Nov-22 09:33N 48°32' W 122°60'0 0.0
2014-Nov-22 08:29N 48°32' W 122°60'0 0.0
2014-Nov-22 07:32N 48°32' W 122°60'0 0.0
2014-Nov-22 06:32N 48°32' W 122°60'0 0.0
2014-Nov-22 05:32N 48°32' W 122°60'0 0.0
2014-Nov-22 04:32N 48°32' W 122°60'0 0.0
2014-Nov-22 03:32N 48°32' W 122°60'0 0.0
2014-Nov-22 02:31N 48°32' W 122°60'0 0.0
2014-Nov-22 01:28N 48°32' W 122°60'0 0.0
2014-Nov-22 00:31N 48°32' W 122°60'9 2.7
2014-Nov-21 21:19N 48°36' W 123°11'8 2.7
2014-Nov-21 18:30N 48°34' W 123°00'2 2.0
2014-Nov-21 17:33N 48°32' W 122°60'0 0.0
2014-Nov-21 16:30N 48°32' W 122°60'0 0.0
2014-Nov-21 15:33N 48°32' W 122°60'0 0.0
2014-Nov-21 14:33N 48°32' W 122°60'0 0.0
2014-Nov-21 13:33N 48°32' W 122°60'0 0.0
2014-Nov-21 12:33N 48°32' W 122°60'0 0.0
2014-Nov-21 11:33N 48°32' W 122°60'0 0.0
2014-Nov-21 10:33N 48°32' W 122°60'0 0.0
2014-Nov-21 09:33N 48°32' W 122°60'0 0.0
2014-Nov-21 08:30N 48°32' W 122°60'0 0.0
2014-Nov-21 07:30N 48°32' W 122°60'0 0.0
2014-Nov-21 06:33N 48°32' W 122°60'0 0.0
2014-Nov-21 05:30N 48°32' W 122°60'0 0.0
2014-Nov-21 04:33N 48°32' W 122°60'0 0.0
2014-Nov-21 03:33N 48°32' W 122°60'0 0.0
2014-Nov-21 02:33N 48°32' W 122°60'0 0.0
2014-Nov-21 01:33N 48°32' W 122°60'0 0.0
2014-Nov-21 00:33N 48°32' W 122°60'0 0.1
2014-Nov-20 23:33N 48°32' W 123°00'1 0.5
2014-Nov-20 22:33N 48°32' W 123°00'1 0.5
2014-Nov-20 21:33N 48°32' W 123°00'6 5.6
2014-Nov-20 20:32N 48°34' W 122°52'9 6.3
2014-Nov-20 19:04N 48°31' W 122°39'2 3.2
2014-Nov-20 18:29N 48°31' W 122°36'5 3.9
2014-Nov-20 17:12N 48°32' W 122°44'4 6.1
2014-Nov-20 16:32N 48°33' W 122°50'5 5.3
2014-Nov-20 15:33N 48°33' W 122°57'2 1.9
2014-Nov-20 14:33N 48°32' W 122°60'0 0.0
2014-Nov-20 13:30N 48°32' W 122°60'0 0.0
2014-Nov-20 12:33N 48°32' W 122°60'0 0.0
2014-Nov-20 11:33N 48°32' W 122°60'0 0.0
2014-Nov-20 10:33N 48°32' W 122°60'0 0.0
2014-Nov-20 09:33N 48°32' W 122°60'0 0.0
2014-Nov-20 08:33N 48°32' W 122°60'0 0.0
2014-Nov-20 07:33N 48°32' W 122°60'0 0.0
2014-Nov-20 06:33N 48°32' W 122°60'0 0.0
2014-Nov-20 05:33N 48°32' W 122°60'0 0.0
2014-Nov-20 04:33N 48°32' W 122°60'0 0.0
2014-Nov-20 03:33N 48°32' W 122°60'0 0.0
2014-Nov-20 02:33N 48°32' W 122°60'0 0.0
2014-Nov-20 01:33N 48°32' W 122°60'1 1.2
2014-Nov-20 00:33N 48°32' W 122°58'5 5.2
2014-Nov-19 23:33N 48°27' W 122°57'  

Dump ship's entire track history